Home   Weather   Iráklion   Past weeks
Flag for Greece

Past Weather in Iráklion, Crete, Greece — Yesterday and Last 2 Weeks

Now
68 °F

Passing clouds.


Feels Like: 68 °F
Forecast: 80 / 62 °F
Wind: 8 mph from Southeast

Location: Heraklion Airport

Current Time: Apr 24, 2019 at 9:41:50 pm

Latest Report: Apr 24, 2019 at 8:50 pm


Visibility: N/A

Pressure: 30.18 "Hg

Humidity: 26%

Dew Point: 32 °F

Location of IráklionLocation

Past Weather in Iráklion — Graph

°F

Iráklion Temperature Yesterday

Maximum temperature yesterday: 73 °F (at 12:50 pm)
Minimum temperature yesterday: 48 °F (at 6:50 am)
Average temperature yesterday: 63 °F

High & Low Weather Summary for the Past Weeks

 TemperatureHumidityPressure
High75 °F (Apr 12, 1:50 pm)94% (Apr 16, 12:20 am)30.24 "Hg (Apr 16, 12:20 am)
Low48 °F (Apr 23, 6:50 am)10% (Apr 24, 5:50 am)29.74 "Hg (Apr 9, 8:20 pm)
Average61 °F63%30.01 "Hg
* Reported Apr 9 8:20 pm — Apr 24 8:20 pm, Iráklion. Weather by CustomWeather, © 2019

Note: Actual official high and low records may vary slightly from our data, if they occured in-between our weather recording intervals... More about our weather records

Advertising

Iráklion Weather History for the Previous 24 Hours

Scroll right to see more
 ConditionsComfort  
Time TempWeatherWind HumidityBarometerVisibility
8:20 pm
Wed, Apr 24
68 °FPassing clouds.9 mph28%30.18 "HgN/A
7:50 pm68 °FPartly sunny.8 mph28%30.18 "HgN/A
7:20 pm73 °FPartly sunny.12 mph23%30.18 "HgN/A
6:50 pm73 °FPartly sunny.12 mph23%30.18 "HgN/A
6:20 pm73 °FPartly sunny.15 mph23%30.18 "HgN/A
5:50 pm73 °FPartly sunny.14 mph23%30.18 "HgN/A
5:20 pm73 °FPartly sunny.10 mph29%30.21 "HgN/A
4:50 pm73 °FPartly sunny.12 mph29%30.21 "HgN/A
4:20 pm72 °FPartly sunny.15 mph25%30.18 "HgN/A
3:50 pm72 °FPartly sunny.26 mph25%30.18 "HgN/A
3:20 pm73 °FPartly sunny.21 mph25%30.18 "HgN/A
2:50 pm73 °FPartly sunny.25 mph25%30.18 "HgN/A
2:20 pm72 °FPartly sunny.29 mph29%30.18 "HgN/A
1:50 pm72 °FPartly sunny.23 mph29%30.18 "HgN/A
1:20 pm73 °FScattered clouds.28 mph25%30.21 "HgN/A
12:50 pm73 °FScattered clouds.28 mph25%30.21 "HgN/A
12:20 pm75 °FScattered clouds.29 mph25%30.18 "HgN/A
11:50 am75 °FScattered clouds.21 mph25%30.18 "HgN/A
11:20 am73 °FScattered clouds.24 mph27%30.18 "HgN/A
10:50 am72 °FPassing clouds.23 mph25%30.18 "HgN/A
10:20 am72 °FPassing clouds.22 mph25%30.15 "HgN/A
9:50 am72 °FPassing clouds.20 mph25%30.15 "HgN/A
8:50 am70 °FPassing clouds.16 mph21%30.15 "HgN/A
8:20 am68 °FPassing clouds.22 mph23%30.15 "HgN/A
7:50 am68 °FPassing clouds.29 mph18%30.12 "HgN/A
7:20 am66 °FPassing clouds.31 mph17%30.09 "HgN/A
6:50 am66 °FPassing clouds.26 mph17%30.09 "HgN/A
6:20 am68 °FPassing clouds.25 mph10%30.09 "HgN/A
5:50 am68 °FPassing clouds.25 mph10%30.09 "HgN/A
5:20 am68 °FPassing clouds.31 mph11%30.09 "HgN/A
4:50 am68 °FPassing clouds.29 mph11%30.09 "HgN/A
4:20 am68 °FPassing clouds.15 mph13%30.12 "HgN/A
3:50 am68 °FPassing clouds.14 mph13%30.12 "HgN/A
3:20 am68 °FPassing clouds.22 mph21%30.12 "HgN/A
2:20 am68 °FPassing clouds.24 mph28%30.12 "HgN/A
1:50 am68 °FPassing clouds.24 mph28%30.12 "HgN/A
1:20 am68 °FPassing clouds.23 mph28%30.09 "HgN/A
12:50 am68 °FPassing clouds.15 mph28%30.09 "HgN/A
12:20 am70 °FPassing clouds.12 mph15%30.12 "HgN/A
11:50 pm
Tue, Apr 23
70 °FPassing clouds.12 mph15%30.12 "HgN/A
11:20 pm68 °FPassing clouds.26 mph18%30.12 "HgN/A
10:50 pm68 °FPassing clouds.26 mph18%30.12 "HgN/A
10:20 pm68 °FPassing clouds.18 mph18%30.12 "HgN/A
9:50 pm68 °FPassing clouds.18 mph18%30.12 "HgN/A
Weather by CustomWeather, © 2019

See weather overview